Creek Data

    Home     View Charts     View Raw Data     Messages

ID Distance Battery Voltage Battery Current Internal Temp Internal Humidity External Temp Solar Input rssi snr Time Stamp Record
35227 15.2 4.04 0 54 38 58 5.1 -80 7 03/17/2025 09:45 AM 16988
35226 15.1 4.04 5 52 38 55 5.1 -79 7 03/17/2025 09:30 AM 16987
35225 15.1 4.04 0 50 38 51 5.1 -79 7 03/17/2025 09:00 AM 16985
35224 15.1 4.10 29 50 39 50 4.5 -80 7 03/17/2025 08:45 AM 16984
35223 0.0 4.03 18 49 39 50 4.5 -79 7 03/17/2025 08:30 AM 16983
35222 15.1 4.05 10 49 39 49 4.5 -80 8 03/17/2025 08:15 AM 16982
35221 15.1 4.04 5 48 39 49 4.5 -79 7 03/17/2025 08:00 AM 16981
35220 15.1 3.98 0 47 39 48 4.5 -80 6 03/17/2025 07:45 AM 16980
35219 15.1 4.01 -9 47 40 48 3.3 -80 7 03/17/2025 07:15 AM 16978
35218 0.0 3.97 -5 48 40 48 0.4 -80 8 03/17/2025 07:01 AM 16977
35217 15.1 3.97 -5 47 40 48 0.1 -80 7 03/17/2025 06:31 AM 16975
35216 0.0 3.97 -5 48 40 48 0.1 -82 7 03/17/2025 06:15 AM 16974
35215 0.0 3.97 -5 48 40 48 0 -82 7 03/17/2025 06:00 AM 16973
35214 0.0 4.02 -5 48 40 48 0 -82 7 03/17/2025 05:45 AM 16972
35213 0.0 3.97 -5 48 40 48 0 -81 7 03/17/2025 05:30 AM 16971
35212 0.0 3.98 -35 48 40 48 0.1 -83 7 03/17/2025 05:16 AM 16970
35211 0.0 3.98 -5 48 40 48 0 -81 7 03/17/2025 04:30 AM 16967
35210 0.0 4.03 -5 48 40 49 0 -80 6 03/17/2025 04:15 AM 16966
35209 0.0 3.98 -5 48 40 49 0 -80 7 03/17/2025 04:00 AM 16965
35208 0.0 4.03 -5 48 40 49 0.1 -81 8 03/17/2025 03:45 AM 16964
35207 0.0 3.98 -5 48 40 49 0 -81 6 03/17/2025 03:30 AM 16963
35206 0.0 3.98 -5 48 40 49 0 -80 7 03/17/2025 03:15 AM 16962
35205 0.0 3.98 -5 48 40 49 0 -79 7 03/17/2025 03:00 AM 16961
35204 0.0 3.98 -34 48 40 49 0 -79 7 03/17/2025 02:45 AM 16960
35203 0.0 3.98 -5 48 40 48 0 -80 5 03/17/2025 02:30 AM 16959